Location: Ballingbuur
(53.0000°N, 5.7667°E)
Time: 06:11:55
(UTC+00:00)

Lacrosse 5 - Pass Details

Date: 29 November 2020
Orbit: 713 x 726 km, 57.0° (Epoch: 22 January)

Event Time Altitude Azimuth Distance (km) Brightness Sun altitude
Exits shadow 06:11:21 - 255° (WSW) 2,413 4.1 -10.5°
Reaches altitude 10° 06:11:56 10° 256° (WSW) 2,191 3.9 -10.4°
Maximum altitude 06:16:58 71° 341° (NNW) 757 1.9 -9.7°
Drops below altitude 10° 06:22:02 10° 66° (ENE) 2,200 5.0 -9.0°
Sets 06:24:26 0° 68° (ENE) 3,123 5.9 -8.7°
